RH
21 22 24 26 26 24 25 24 21 20 20 20 20 22 25 28 28 28 28 27 25 23 20 16 14 11 8 7 6 6 5 4
24 25 26 29 29 31 30 28 28 28 26 27 30 32 32 32 33 32 28 24 20 16 14 12 10 8 7 5 5 4 5 6
29 30 30 32 36 33 33 33 33 34 34 34 35 37 39 37 34 30 26 23 22 20 18 17 14 13 11 9 8 7 7 9
37 36 37 37 36 33 34 34 34 34 34 38 44 42 42 39 33 30 27 25 23 22 22 23 23 21 20 18 17 16 14 20
47 46 44 45 36 37 36 34 34 38 47 49 47 48 44 34 26 24 21 15 11 9 13 20 25 27 29 29 29 28 27 28
49 49 50 46 41 39 41 40 42 48 51 52 51 49 42 26 20 16 10 6 6 8 14 20 29 34 34 34 34 34 31 30
52 54 51 45 43 46 47 50 52 56 55 52 54 49 35 16 18 16 8 6 7 11 17 24 37 45 47 48 44 43 44 42
68 71 60 47 53 50 48 53 52 53 50 51 54 43 25 15 10 11 12 8 8 8 18 27 45 54 56 59 62 61 58 57
52 50 46 47 53 53 51 48 58 58 57 59 56 39 30 25 10 6 7 8 8 9 14 24 36 40 42 53 59 61 64 60
48 46 46 48 51 53 52 58 64 61 60 61 58 45 37 12 8 7 8 9 10 10 11 11 26 33 33 34 48 61 62 64
48 48 54 54 57 63 63 73 77 73 73 66 56 43 21 10 8 8 10 11 12 12 11 11 10 32 26 25 30 36 57 64
50 66 66 64 64 71 74 78 91 92 82 72 87 67 19 10 8 10 12 14 14 14 13 12 12 12 23 15 15 20 29 55
62 67 70 75 71 75 84 87 97 97 95 91 86 34 29 9 10 12 14 16 16 16 15 15 14 13 12 12 10 10 9 21
64 73 80 88 84 86 97 98 99 98 94 87 22 44 9 10 13 16 17 17 17 16 16 16 15 15 14 13 12 11 11 9
73 80 83 94 93 100 100 99 98 94 89 57 69 14 12 13 16 18 18 17 17 18 18 18 18 17 16 15 14 14 13 12
62 73 76 98 92 100 100 99 96 91 94 64 13 10 13 17 17 16 18 20 22 23 23 23 22 21 21 19 18 18 17 16
62 72 74 79 85 98 92 94 95 95 61 13 9 13 17 16 18 22 25 26 27 27 27 27 26 25 24 23 23 22 21 21
65 78 83 83 88 87 92 96 92 80 22 9 12 18 19 23 25 27 28 30 32 31 31 30 30 30 29 28 28 27 26 25
70 80 76 75 81 91 93 90 81 32 10 14 21 21 24 25 27 24 30 34 36 37 37 38 36 34 31 27 24 23 22 22
Wind_Speed
28 28 26 26 24 24 25 28 30 31 32 33 35 36 37 37 37 38 38 37 38 39 40 40 40 42 41 42 43 43 45 45
31 31 29 26 22 22 23 25 27 30 32 33 33 31 30 30 31 31 33 36 37 39 40 41 42 42 42 43 43 45 45 46
33 30 28 25 21 22 24 25 26 27 29 29 28 26 24 25 27 31 33 34 35 36 37 38 40 40 41 42 43 44 45 45
30 26 24 20 20 24 26 24 24 25 24 23 21 21 24 26 28 29 29 30 31 33 35 35 35 36 37 37 38 40 41 39
31 25 21 19 22 27 23 24 20 19 19 18 19 20 22 23 23 24 26 28 30 32 34 35 35 34 34 33 33 33 35 34
30 22 22 22 27 24 20 19 20 19 18 18 19 21 21 21 22 23 24 27 28 30 32 33 33 32 32 32 32 31 31 31
21 19 22 25 23 19 18 17 17 15 18 19 21 21 20 20 20 21 23 25 26 28 31 33 33 32 30 28 27 27 27 26
23 24 24 23 19 20 16 11 13 15 17 20 20 18 19 21 22 22 23 24 24 25 26 30 33 34 33 31 26 23 22 20
14 15 16 17 17 18 15 14 14 17 19 19 19 19 20 21 22 21 22 23 23 22 22 23 27 30 33 35 30 25 20 18
15 17 19 21 18 18 19 18 18 19 20 21 19 19 21 20 20 20 20 20 21 20 20 19 21 25 27 32 33 28 25 21
13 19 25 21 20 20 21 20 19 19 21 20 18 19 20 19 19 19 19 18 18 18 18 19 19 21 25 27 30 36 35 32
22 20 22 23 19 19 22 22 20 20 19 18 18 20 18 18 18 18 17 17 17 17 18 18 18 18 22 25 26 27 34 38
24 23 24 25 22 23 23 24 24 22 20 15 17 16 17 17 17 17 16 15 16 16 16 17 17 17 18 21 22 24 25 27
27 26 25 26 24 23 21 22 20 17 14 11 12 15 15 15 14 14 14 14 14 14 15 16 16 16 17 17 18 20 22 25
23 24 23 24 25 21 19 17 16 13 11 11 12 13 13 13 12 12 12 13 14 14 13 14 15 15 16 15 17 18 20 21
23 22 22 23 23 21 18 16 15 11 10 8 11 11 10 10 10 11 12 12 12 12 13 13 13 14 14 15 16 18 20 21
17 17 18 18 19 19 17 14 11 9 7 9 9 9 8 8 9 9 10 10 11 11 12 12 12 12 13 14 16 17 19 20
15 17 17 16 16 17 15 11 9 7 7 8 7 7 7 8 8 7 7 9 9 10 10 11 11 12 13 14 15 16 18 19
13 12 13 13 13 13 10 8 7 8 8 7 7 6 8 7 7 7 6 7 8 9 10 10 11 12 13 15 16 16 17 18
Wind_Direction
276 280 281 282 289 290 293 294 292 290 289 290 292 295 296 297 298 298 298 296 295 293 291 288 285 283 281 279 277 275 274 273
266 270 275 278 284 294 299 298 296 293 293 295 297 298 297 297 297 297 296 297 297 296 294 291 288 285 282 280 277 276 274 273
268 264 268 276 294 301 304 302 300 298 297 296 295 295 296 299 303 306 307 306 305 303 299 296 293 290 286 282 279 275 274 272
262 258 265 287 301 302 303 303 303 302 301 300 299 302 310 315 315 313 313 315 316 316 313 309 302 294 288 282 279 276 273 272
242 250 268 291 293 295 292 299 302 303 298 296 301 307 312 314 316 320 325 328 329 331 332 327 320 310 301 292 284 279 275 271
243 259 275 293 291 293 293 297 297 293 296 300 306 312 315 316 321 327 328 330 331 335 338 338 333 324 315 303 294 285 282 278
244 269 290 297 298 290 294 292 290 298 301 303 307 310 311 313 319 325 327 329 332 336 345 351 350 345 338 328 311 299 290 286
252 282 278 287 290 290 289 283 294 299 299 302 305 306 308 312 314 316 322 326 329 335 344 0 6 6 360 353 340 322 309 298
283 293 303 304 294 285 282 294 304 298 302 304 305 305 309 312 313 316 319 323 327 332 341 355 8 12 14 12 2 352 333 314
273 291 303 305 300 283 282 291 295 296 300 300 301 306 310 313 314 315 319 322 326 331 339 343 356 5 10 17 19 17 10 353
264 288 298 302 299 285 281 287 287 289 295 294 298 307 309 311 313 315 317 321 324 331 339 344 351 2 4 7 13 24 24 23
294 298 294 299 291 284 282 284 288 289 285 283 296 300 304 313 315 315 317 321 326 332 338 344 349 355 359 2 8 15 24 28
296 294 289 285 281 283 282 285 282 281 275 285 300 298 303 310 314 316 320 327 330 335 341 346 349 356 357 357 4 15 18 25
292 288 280 275 277 278 282 287 288 282 285 299 295 297 310 316 319 322 324 329 332 337 341 340 347 353 357 358 4 14 19 24
286 286 277 273 275 274 274 281 279 280 289 290 291 299 310 310 316 321 325 330 335 338 336 342 349 353 357 357 5 11 16 19
277 274 272 270 270 266 271 274 273 275 284 288 292 300 303 312 321 327 331 337 340 341 345 351 354 1 359 7 14 15 14 18
267 264 263 263 263 264 269 262 261 267 263 279 290 296 309 325 327 333 339 343 347 348 355 356 1 5 8 16 21 23 21 19
261 261 261 257 254 257 253 247 244 244 258 272 282 295 306 316 321 333 345 349 346 355 357 1 3 7 10 15 23 22 24 21
256 253 251 250 248 244 237 231 225 232 244 255 274 286 304 313 325 334 344 349 352 354 357 0 5 6 8 9 12 16 17 16